This demonstration page uses our WeatherBlox Daily Observations layout. Learn more.

Left ArrowRight Arrow

Hourly Observations for June 9, 2022

Temp ( °F °C ) Dew Point ( °F °C ) Humidity (%) Winds ( mph kmh ) Pressure ( in mb ) Visibility ( mi km ) Precip ( " mm )
12:15 am 00:15 Cloudy 70 21 70 21 100 100 S 3 6 29.73 1007 10 16 0.00 0.00
12:35 am 00:35 Partly Cloudy 70 21 70 21 100 100 SSW 5 7 29.73 1007 10 16 0.00 0.00
12:55 am 00:55 Mostly Cloudy 70 21 70 21 100 100 S 3 6 29.72 1006 10 16 0.00 0.00
1:15 am 01:15 Mostly Cloudy 70 21 70 21 100 100 SSE 6 9 29.71 1006 10 16 0.00 0.00
1:35 am 01:35 Mostly Cloudy with Light Rain 70 21 70 21 100 100 S 7 11 29.71 1006 10 16 0.00 0.00
1:55 am 01:55 Mostly Cloudy 70 21 70 21 100 100 W 7 11 29.72 1006 5 8 0.02 0.51
2:15 am 02:15 Cloudy 70 21 70 21 100 100 WSW 6 9 29.72 1006 5 8 0.08 2.03
2:35 am 02:35 Cloudy with Nearby Thunderstorms 70 21 70 21 100 100 Calm 29.68 1005 7 11 0.14 3.56
2:55 am 02:55 Cloudy with Rain 70 21 70 21 100 100 S 12 19 29.67 1005 7 11 0.18 4.57
3:15 am 03:15 Mostly Cloudy with Light Rain 70 21 70 21 100 100 SSE 13 20 29.63 1003 10 16 0.01 0.25
3:35 am 03:35 Partly Cloudy 70 21 70 21 100 100 WSW 7 11 29.66 1004 10 16 0.01 0.25
3:55 am 03:55 Partly Cloudy 70 21 70 21 100 100 WSW 7 11 29.66 1004 10 16 0.01 0.25
4:15 am 04:15 Clear 70 21 70 21 100 100 W 5 7 29.66 1004 10 16 0.00 0.00
4:35 am 04:35 Clear 68 20 68 20 100 100 W 7 11 29.66 1004 10 16 0.00 0.00
4:55 am 04:55 Clear 68 20 68 20 100 100 WSW 3 6 29.67 1005 10 16 0.00 0.00
5:15 am 05:15 Clear 68 20 68 20 100 100 WSW 5 7 29.67 1005 10 16 0.00 0.00
5:35 am 05:35 Clear 68 20 68 20 100 100 WSW 5 7 29.67 1005 10 16 0.00 0.00
5:55 am 05:55 Sunny 68 20 68 20 100 100 WSW 3 6 29.68 1005 10 16 0.00 0.00
6:15 am 06:15 Sunny 68 20 68 20 100 100 W 6 9 29.68 1005 10 16 0.00 0.00
6:35 am 06:35 Sunny 68 20 68 20 100 100 SSW 5 7 29.68 1005 10 16 0.00 0.00
6:55 am 06:55 Sunny 68 20 68 20 100 100 SSW 6 9 29.69 1005 10 16 0.00 0.00
7:15 am 07:15 Sunny 70 21 68 20 94 94 WSW 3 6 29.69 1005 10 16 0.00 0.00
7:35 am 07:35 Sunny 72 22 68 20 88 88 SW 7 11 29.69 1005 10 16 0.00 0.00
7:55 am 07:55 Sunny 73 23 68 20 83 83 SW 5 7 29.70 1006 10 16 0.00 0.00
8:15 am 08:15 Sunny 73 23 66 19 78 78 W 3 6 29.71 1006 10 16 0.00 0.00
8:35 am 08:35 Partly Cloudy 75 24 68 20 78 78 WNW 5 7 29.72 1006 10 16 0.00 0.00
8:55 am 08:55 Partly Cloudy 77 25 64 18 65 65 W 9 15 29.72 1007 10 16 0.00 0.00
9:15 am 09:15 Partly Cloudy 77 25 64 18 65 65 WNW 12 19 29.72 1007 10 16 0.00 0.00
9:35 am 09:35 Mostly Cloudy 77 25 64 18 65 65 WNW 13 20 29.73 1007 10 16 0.00 0.00
9:55 am 09:55 Cloudy 75 24 63 17 65 65 WNW 18 30 29.74 1007 10 16 0.00 0.00
10:15 am 10:15 Cloudy 77 25 63 17 61 61 WNW 15 24 29.74 1007 10 16 0.00 0.00
10:35 am 10:35 Partly Cloudy 77 25 61 16 57 57 WNW 20 31 29.74 1007 10 16 0.00 0.00
10:55 am 10:55 Partly Cloudy 77 25 59 15 54 54 NW 18 30 29.75 1008 10 16 0.00 0.00
11:15 am 11:15 Cloudy 77 25 61 16 57 57 NW 15 24 29.75 1008 10 16 0.00 0.00
11:35 am 11:35 Mostly Cloudy 77 25 61 16 57 57 NW 15 24 29.75 1008 10 16 0.00 0.00
11:55 am 11:55 Partly Cloudy 79 26 61 16 54 54 WNW 18 30 29.76 1008 10 16 0.00 0.00
12:15 pm 12:15 Partly Cloudy 79 26 61 16 54 54 WNW 18 30 29.76 1008 10 16 0.00 0.00
12:35 pm 12:35 Mostly Cloudy 77 25 59 15 54 54 WNW 18 30 29.77 1008 10 16 0.00 0.00
12:55 pm 12:55 Mostly Cloudy 77 25 61 16 57 57 NW 17 28 29.77 1008 10 16 0.00 0.00
1:15 pm 13:15 Mostly Cloudy 77 25 61 16 57 57 NW 16 26 29.77 1008 10 16 0.00 0.00
1:35 pm 13:35 Mostly Cloudy 79 26 63 17 58 58 NW 16 26 29.78 1009 10 16 0.00 0.00
1:55 pm 13:55 Mostly Cloudy 77 25 61 16 57 57 NW 17 28 29.78 1009 10 16 0.00 0.00
2:15 pm 14:15 Partly Cloudy 79 26 61 16 54 54 WNW 24 39 29.78 1009 10 16 0.00 0.00
2:35 pm 14:35 Partly Cloudy 79 26 61 16 54 54 NW 17 28 29.78 1009 10 16 0.00 0.00
2:55 pm 14:55 Mostly Cloudy 77 25 59 15 54 54 NNW 17 28 29.79 1009 10 16 0.00 0.00
3:15 pm 15:15 Cloudy 77 25 57 14 51 51 NW 21 33 29.79 1009 10 16 0.00 0.00
3:35 pm 15:35 Partly Cloudy 79 26 59 15 51 51 NNW 20 31 29.79 1009 10 16 0.00 0.00
3:55 pm 15:55 Partly Cloudy 79 26 59 15 51 51 WNW 23 37 29.79 1009 10 16 0.00 0.00
4:15 pm 16:15 Partly Cloudy 77 25 59 15 54 54 N 20 31 29.80 1009 10 16 0.00 0.00
4:35 pm 16:35 Mostly Cloudy 77 25 55 13 47 47 NNW 20 31 29.80 1009 10 16 0.00 0.00
4:55 pm 16:55 Mostly Cloudy 75 24 55 13 50 50 NW 16 26 29.81 1009 10 16 0.00 0.00
5:15 pm 17:15 Partly Cloudy 75 24 55 13 50 50 NNW 16 26 29.81 1009 10 16 0.00 0.00
5:35 pm 17:35 Partly Cloudy 77 25 55 13 47 47 NW 20 31 29.81 1010 10 16 0.00 0.00
5:55 pm 17:55 Sunny 77 25 55 13 47 47 NNW 17 28 29.80 1009 10 16 0.00 0.00
6:15 pm 18:15 Sunny 77 25 55 13 47 47 NW 20 31 29.80 1009 10 16 0.00 0.00
6:35 pm 18:35 Partly Cloudy 75 24 55 13 50 50 NW 15 24 29.82 1010 10 16 0.00 0.00
6:55 pm 18:55 Partly Cloudy 75 24 55 13 50 50 NNW 13 20 29.82 1010 10 16 0.00 0.00
7:15 pm 19:15 Sunny 73 23 55 13 53 53 NW 13 20 29.83 1010 10 16 0.00 0.00
7:35 pm 19:35 Sunny 73 23 55 13 53 53 NNW 18 30 29.84 1010 10 16 0.00 0.00
7:55 pm 19:55 Sunny 72 22 55 13 57 57 NW 12 19 29.85 1011 10 16 0.00 0.00
8:15 pm 20:15 Sunny 70 21 55 13 60 60 NNW 9 15 29.85 1011 10 16 0.00 0.00
8:35 pm 20:35 Sunny 70 21 55 13 60 60 N 6 9 29.86 1011 10 16 0.00 0.00
8:55 pm 20:55 Clear 68 20 55 13 64 64 NNW 6 9 29.87 1012 10 16 0.00 0.00
9:15 pm 21:15 Partly Cloudy 68 20 55 13 64 64 NNW 7 11 29.87 1012 10 16 0.00 0.00
9:35 pm 21:35 Partly Cloudy 68 20 55 13 64 64 NNW 7 11 29.88 1012 10 16 0.00 0.00
9:55 pm 21:55 Partly Cloudy 66 19 55 13 68 68 NNW 3 6 29.89 1012 10 16 0.00 0.00
10:15 pm 22:15 Clear 64 18 55 13 73 73 NW 3 6 29.89 1012 10 16 0.00 0.00
10:35 pm 22:35 Clear 66 19 55 13 68 68 SSW 3 6 29.90 1013 10 16 0.00 0.00
11:15 pm 23:15 Clear 64 18 54 12 68 68 NNW 9 15 29.90 1013 10 16 0.00 0.00
11:35 pm 23:35 Clear 64 18 54 12 68 68 N 7 11 29.90 1013 10 16 0.00 0.00

Powered by AerisWeather